Location: ??????
(38.0131°N, 23.7723°E)
Time: 05:43:20
(UTC+00:00)

Spot 2 - Pass Details

Date: 17 October 2021
Orbit: 570 x 772 km, 98.7° (Epoch: 28 November)

Event Time Altitude Azimuth Distance (km) Brightness Sun altitude
Rises 17:04:11 0° 166° (SSE) 2,758 7.2 -16.4°
Reaches altitude 10° 17:06:17 10° 166° (SSE) 1,868 6.4 -16.9°
Maximum altitude 17:10:18 89° 248° (WSW) 585 3.9 -17.7°
Drops below altitude 10° 17:14:29 10° 346° (NNW) 1,934 6.8 -18.5°
Sets 17:16:41 0° 347° (NNW) 2,865 7.7 -18.9°
